Flag for Germany Weather past 2 weeks in Freiberg, Saxony, Germany

36 °F


Feels Like: 32 °F
Forecast: 28 / 37 °F
Wind: 5 mph from Southwest

Location: Dresden-Klotzsche

Current Time: Nov 26, 2015 at 6:07:19 AM

Latest Report: Nov 26, 2015 at 4:50 AM

Visibility: N/A

Pressure: 29.77 "Hg

Humidity: 93%

Dew point: 34 °F

Location of FreibergLocation

Historic Weather in Freiberg — Graph


Freiberg temperature yesterday

Maximum temperature yesterday: 39 °F (at 1:20 PM)
Minimum temperature yesterday: 32 °F (at 12:20 AM)
Average temperature yesterday: 36 °F

Past Weeks' High & Low Weather Summary

High59 °F (Nov 11, 3:20 PM)100% (Nov 14, 10:20 PM)30.33 "Hg (Nov 14, 10:20 PM)
Low27 °F (Nov 24, 2:20 AM)55% (Nov 18, 11:50 AM)29.36 "Hg (Nov 21, 12:20 PM)
Average45 °F82%29.89 "Hg
* Reported Nov 11 4:20 AM — Nov 26 4:50 AM, Freiberg, Weather by CustomWeather, © 2015

Note: Actual official high and low records may vary slightly from our data, if they occured in-between our weather recording intervals... More about our weather records


Freiberg weather history for previous 24 hours

Time TempWeatherWind HumidityBarometerVisibility
4:50 AM
Thu, Nov 26
36 °FOvercast.5 mph93%29.77 "HgN/A
4:20 AM36 °FOvercast.5 mph100%29.74 "HgN/A
3:50 AM37 °FOvercast.5 mph87%29.74 "HgN/A
3:20 AM37 °FOvercast.5 mph87%29.74 "HgN/A
2:50 AM37 °FMostly cloudy.5 mph87%29.74 "HgN/A
2:20 AM37 °FOvercast.3 mph87%29.74 "HgN/A
1:20 AM37 °FLight rain. Low clouds.3 mph87%29.71 "HgN/A
12:50 AM37 °FLight rain. Overcast.5 mph87%29.71 "HgN/A
12:20 AM37 °FLight rain. Overcast.5 mph87%29.71 "HgN/A
11:50 PM
Wed, Nov 25
37 °FLight rain. Passing clouds.6 mph87%29.71 "HgN/A
11:20 PM37 °FPassing clouds.6 mph81%29.71 "HgN/A
10:50 PM37 °FPassing clouds.6 mph81%29.71 "HgN/A
10:20 PM37 °FPassing clouds.6 mph81%29.71 "HgN/A
9:50 PM37 °FPassing clouds.5 mph81%29.71 "HgN/A
9:20 PM37 °FPassing clouds.7 mph81%29.71 "HgN/A
8:50 PM37 °FPassing clouds.6 mph81%29.68 "HgN/A
8:20 PM37 °FPassing clouds.7 mph81%29.68 "HgN/A
7:50 PM37 °FPassing clouds.7 mph81%29.68 "HgN/A
7:20 PM37 °FLight rain. Passing clouds.6 mph81%29.68 "HgN/A
6:50 PM37 °FLight rain. Passing clouds.6 mph81%29.68 "HgN/A
6:20 PM37 °FPassing clouds.7 mph81%29.68 "HgN/A
5:50 PM37 °FPassing clouds.7 mph81%29.68 "HgN/A
5:20 PM37 °FChilly.5 mph81%29.68 "HgN/A
4:50 PM37 °FPassing clouds.6 mph81%29.68 "HgN/A
4:20 PM37 °FPassing clouds.5 mph81%29.68 "HgN/A
3:50 PM37 °FPartly sunny.6 mph81%29.68 "HgN/A
3:20 PM37 °FPartly sunny.3 mph81%29.68 "HgN/A
2:50 PM37 °FPartly sunny.5 mph81%29.68 "HgN/A
2:20 PM37 °FPartly sunny.6 mph75%29.68 "HgN/A
1:50 PM37 °FPartly sunny.7 mph75%29.68 "HgN/A
1:20 PM39 °FPartly sunny.7 mph75%29.68 "HgN/A
12:50 PM37 °FPartly sunny.8 mph75%29.68 "HgN/A
12:20 PM37 °FPartly sunny.8 mph75%29.71 "HgN/A
11:50 AM37 °FBroken clouds.9 mph75%29.71 "HgN/A
11:20 AM36 °FBroken clouds.9 mph81%29.71 "HgN/A
10:50 AM36 °FBroken clouds.8 mph81%29.71 "HgN/A
10:20 AM36 °FBroken clouds.7 mph75%29.71 "HgN/A
9:50 AM34 °FLight snow. Mostly cloudy.9 mph81%29.74 "HgN/A
9:20 AM34 °FLight snow. Mostly cloudy.9 mph81%29.74 "HgN/A
8:50 AM34 °FMostly cloudy.9 mph75%29.74 "HgN/A
8:20 AM32 °FMore clouds than sun.10 mph80%29.74 "HgN/A
7:50 AM32 °FMore clouds than sun.10 mph80%29.74 "HgN/A
7:20 AM32 °FPartly cloudy.9 mph80%29.74 "HgN/A
6:50 AM32 °FClear.12 mph80%29.74 "Hg10 mi
6:20 AM34 °FPassing clouds.10 mph75%29.74 "HgN/A
Weather by CustomWeather, © 2015

See weather overviewHow to use our weather pages